SCP
-0 -0 -0 -0 0 0 -0 0 -0 0 -0 -0 -0 -0 -0 -1 -1 -0 -0 -0 -0 -0 -0 -0 -0 -0 -0 -0 -0 -0 -0 -0 -0 -0 -0 -0 -0 -0 -0 -0 -0 -0 0 0 0 0 0 0 0
0 0 -0 0 0 0 0 -0 -0 -0 0 -0 -0 -0 -0 -0 -0 -0 -0 -1 -0 -0 -0 -0 -0 -0 -0 -0 -0 -0 -0 -0 -0 -0 -0 -0 -0 -0 -0 0 0 0 0 0 0 0 0 0 0
0 0 0 0 0 0 -0 -0 -0 0 -0 -0 -0 -0 -0 -0 -0 -0 -1 -1 -0 -0 -0 -0 -0 -0 -0 -0 -0 -0 -0 -0 -0 -0 -0 -0 -0 -0 -0 0 0 0 0 0 0 0 0 0 0
0 0 0 0 0 -0 -0 -0 0 0 0 0 -0 -0 -0 0 -0 -0 -1 -0 -0 -0 -0 -0 -0 -0 -0 -0 -0 -0 -0 -0 -0 -0 -0 -0 0 0 0 0 0 0 0 0 0 0 0 0 0
0 0 0 0 0 -0 -0 0 0 0 0 0 -0 -0 -0 -0 -0 -0 -0 -0 -1 -0 -0 -0 -0 -0 -0 -0 -0 -0 -0 -0 0 0 0 0 0 0 0 0 0 0 0 0 0 0 0 0 0
0 0 0 0 0 -0 -0 0 0 0 0 0 -0 -0 -0 -0 -0 -0 0 -0 -1 -0 -0 0 0 -0 -0 -0 -0 0 0 0 0 0 0 0 0 0 0 0 0 0 0 0 0 0 0 0 0
0 0 0 0 -0 -0 0 0 0 0 0 0 0 0 0 -0 -0 0 0 -0 -1 -0 -0 0 0 0 0 0 0 0 0 0 0 0 0 0 0 0 0 0 0 0 0 0 0 0 0 0 0
0 0 0 0 0 -0 -0 0 0 0 0 0 0 0 0 -0 -0 0 0 -0 -0 -0 -0 -0 0 0 0 0 0 0 0 0 0 0 0 0 0 0 0 0 0 0 0 0 0 0 0 0 0
0 0 0 0 0 -0 -0 0 0 0 0 0 0 0 -0 -0 0 -0 0 0 0 -0 -0 -0 0 0 0 -0 0 0 0 0 0 0 0 0 0 0 0 0 0 0 0 0 0 0 0 0 0
0 0 0 0 0 -0 0 0 0 0 0 0 0 0 0 0 0 -0 0 0 0 -0 -1 -1 -0 0 -0 0 -0 -0 0 0 0 0 0 0 0 0 0 0 0 0 0 0 0 0 0 0 0
0 0 0 0 -0 0 0 0 0 0 0 0 0 0 0 0 -0 -0 0 0 0 -0 0 0 0 0 -0 0 -0 -0 -0 -0 0 0 0 1 0 1 0 1 0 0 0 0 0 0 0 0 0
0 0 0 0 0 0 0 0 0 0 0 0 0 0 0 0 0 0 -0 0 0 0 1 0 1 0 0 0 0 0 0 0 0 0 0 0 0 0 0 0 0 1 0 0 0 0 0 0 0
0 0 0 0 0 0 0 0 0 0 0 0 0 0 0 0 0 -0 -0 0 0 0 1 0 0 0 0 0 0 0 0 0 0 0 0 0 0 0 0 0 0 0 0 0 0 0 0 -0 -0
0 0 0 0 0 0 0 0 0 0 0 0 0 0 0 0 0 0 0 0 0 0 0 0 0 0 0 0 0 0 0 0 0 0 0 0 0 0 0 0 0 0 0 0 0 0 0 0 0
0 0 0 0 0 0 0 0 0 0 0 0 0 0 0 0 0 0 0 0 0 0 0 0 0 0 0 0 0 0 0 0 0 0 0 0 0 0 0 0 0 0 0 0 0 0 0 0 0
0 0 0 0 0 0 0 0 0 0 0 0 0 0 0 0 0 0 0 0 0 0 0 0 0 0 0 0 0 0 0 0 0 0 0 0 0 0 0 0 0 0 0 0 0 0 0 0 0
0 0 0 0 0 0 0 0 0 0 0 0 0 0 0 0 0 0 0 0 0 0 0 0 0 0 0 0 0 0 0 0 0 0 0 0 0 0 0 0 0 0 0 0 0 0 0 0 0
0 0 0 0 -0 0 0 0 0 0 0 0 0 0 0 0 0 0 0 0 0 0 0 0 0 0 0 0 0 0 0 0 0 0 0 0 0 0 0 -0 0 0 0 0 0 0 0 0 0
0 0 0 0 0 0 0 0 0 0 0 0 0 0 0 0 0 0 0 0 0 0 0 0 0 0 0 0 0 0 0 0 0 0 0 0 0 0 0 -0 -0 0 0 0 0 0 0 0 0
0 0 0 0 0 -0 0 0 0 0 -0 0 0 0 0 0 0 0 0 0 0 0 0 0 0 0 0 0 0 0 0 0 0 0 0 0 0 0 0 0 -0 0 0 0 0 0 0 0 0
0 0 0 0 0 0 0 0 0 0 0 0 0 0 0 0 0 0 0 0 0 0 0 0 0 0 0 0 0 0 0 0 0 0 0 0 0 0 0 0 0 -0 0 0 0 0 0 0 0
0 0 0 0 0 0 0 0 0 0 0 0 0 0 0 0 0 0 0 0 0 0 0 0 0 0 0 1 0 0 0 0 0 0 0 0 0 0 0 0 0 0 0 0 0 0 0 0 0
0 0 0 0 0 0 0 0 0 0 0 0 0 0 0 0 0 0 0 0 0 0 0 0 0 0 0 0 0 0 0 0 0 0 0 0 0 0 -0 0 0 0 0 0 0 0 0 0 0
0 0 0 0 0 0 0 0 0 0 0 0 0 0 0 0 0 0 0 0 0 0 0 0 0 0 0 0 0 0 0 0 0 0 0 0 0 0 0 0 0 0 0 0 0 0 0 0 0
-0 0 0 0 0 0 0 0 0 0 0 0 0 0 0 0 0 0 0 0 0 0 0 0 0 0 0 0 0 0 0 0 0 0 0 0 0 0 0 0 0 0 0 0 0 0 0 0 0
0 0 0 0 0 0 0 0 0 0 0 0 0 0 0 0 0 0 0 0 0 0 0 0 0 0 0 0 0 0 0 0 0 0 0 0 0 0 0 0 0 0 0 0 0 0 0 0 0
0 0 0 0 0 0 0 0 -0 0 0 0 0 0 0 0 0 0 0 0 0 0 0 0 0 0 0 0 0 0 0 0 0 0 0 0 0 0 0 0 0 0 0 0 0 0 0 0 0
0 0 0 0 0 0 0 0 0 0 0 0 0 0 0 0 0 0 0 0 0 0 0 0 0 0 0 0 0 0 0 0 0 0 0 0 0 0 0 0 0 0 0 0 0 0 0 0 0
0 0 0 0 0 0 0 0 0 0 0 0 0 0 0 0 0 0 0 0 0 0 0 0 0 0 0 0 0 0 0 0 0 0 0 0 0 0 0 0 0 0 0 0 0 0 0 0 0
0 0 0 0 0 0 0 0 0 0 0 -0 0 0 0 0 0 0 0 0 0 0 0 0 0 0 0 0 0 0 0 0 0 0 0 0 0 0 0 0 0 0 0 0 0 0 0 0 0
Wind_Speed_500mb
18 16 18 19 12 13 32 32 42 53 66 58 60 53 50 47 32 20 41 30 32 33 31 25 26 28 28 28 25 22 20 20 20 19 18 16 15 13 11 10 10 9 9 11 11 10 11 13 16
17 12 22 22 18 25 30 15 19 32 45 42 35 52 52 43 48 44 36 38 25 33 30 27 28 29 28 26 23 21 19 19 19 18 15 13 11 9 7 5 5 5 4 5 6 5 4 6 10
12 5 21 11 25 30 28 22 37 36 46 37 49 46 22 25 24 36 42 36 39 31 34 29 27 27 25 23 21 20 18 17 17 15 13 11 9 8 7 5 2 1 3 4 3 2 1 3 6
7 13 21 18 35 42 42 20 34 28 40 32 42 29 24 23 30 37 39 36 40 28 36 30 27 25 24 22 19 17 16 15 14 12 11 10 9 9 9 9 6 4 5 6 7 6 6 6 7
17 22 23 30 37 46 37 25 22 24 22 33 41 30 28 34 41 39 38 39 40 25 32 30 27 25 24 22 20 17 15 14 13 12 12 13 14 14 13 12 11 9 8 9 11 11 11 11 11
23 23 25 30 40 43 40 21 19 22 25 39 53 44 27 37 38 37 36 42 39 26 29 27 25 21 20 19 17 15 14 12 10 9 9 10 11 13 15 16 16 15 14 13 14 16 18 18 18
32 24 34 38 42 42 34 20 21 24 26 27 50 33 34 40 38 40 39 39 38 10 23 28 24 21 19 17 15 12 11 10 9 8 5 4 6 8 11 15 17 19 19 20 20 21 22 24 25
39 22 43 39 36 44 30 30 36 31 25 33 46 29 43 48 45 43 39 35 30 32 17 15 18 15 14 16 14 11 8 7 5 4 3 1 2 5 10 12 15 18 23 26 28 29 30 30 30
42 28 32 41 42 41 28 22 32 27 40 28 9 49 54 48 45 41 42 37 40 43 30 32 32 16 10 13 11 10 9 7 3 1 0 4 3 8 11 15 16 24 29 29 30 33 34 37 40
42 30 44 43 41 36 34 24 30 31 35 33 29 57 52 48 42 45 34 40 35 37 56 38 34 22 18 14 8 17 20 14 11 8 10 4 6 2 5 19 26 24 22 24 29 28 33 30 33
50 41 42 48 55 45 26 30 34 36 28 38 40 44 48 46 43 39 29 44 36 35 35 36 29 23 20 15 13 11 12 9 3 8 11 6 3 11 6 13 22 19 24 23 20 25 30 33 34
46 61 54 59 64 29 35 34 34 33 28 44 43 45 46 46 42 38 34 35 35 40 51 39 36 42 29 18 17 22 10 11 8 12 7 5 11 12 14 15 8 15 21 25 25 28 30 34 30
49 45 54 59 53 22 39 45 32 40 42 54 58 50 46 43 41 37 33 29 44 38 31 29 29 41 40 31 26 24 10 15 16 9 3 5 7 13 15 20 22 23 18 19 23 24 30 33 45
50 48 49 50 56 22 38 41 43 31 30 36 55 49 45 41 40 32 29 34 34 40 32 26 32 32 34 27 19 13 25 18 10 7 2 5 3 9 11 12 11 20 20 24 33 36 33 32 35
49 42 37 37 57 32 42 42 47 38 42 38 45 44 42 39 38 37 31 29 42 43 42 40 31 29 24 17 19 19 22 13 13 7 3 1 6 14 15 15 14 14 25 30 28 20 25 27 32
32 33 37 33 41 30 42 37 42 42 41 39 48 46 43 41 41 40 38 39 42 46 48 42 27 26 21 25 26 22 29 16 10 4 6 8 14 19 20 20 17 25 29 29 22 22 26 28 31
31 31 42 40 36 37 39 29 40 50 38 34 41 46 46 43 40 44 42 45 48 52 54 41 36 27 33 31 34 27 25 16 13 7 8 9 15 19 21 21 24 30 30 26 21 24 30 34 34
33 40 38 36 38 41 42 37 33 41 56 53 50 52 50 51 51 47 45 47 51 52 51 48 46 35 36 38 32 20 20 19 7 5 10 13 17 20 24 22 23 28 29 26 25 34 39 42 40
35 44 41 33 49 37 44 36 37 47 44 59 53 51 56 54 52 54 51 54 57 56 55 57 51 47 45 43 33 23 12 17 13 14 14 16 17 24 26 24 24 25 26 30 35 39 38 37 29
43 46 46 42 36 42 39 40 37 33 43 44 55 56 49 59 57 61 61 63 63 62 60 62 58 52 49 44 28 25 24 19 20 20 18 24 18 30 28 28 25 25 28 31 30 32 36 35 26
45 43 42 46 35 37 34 31 23 29 49 55 53 49 53 56 63 62 70 70 67 69 68 65 64 58 52 47 46 45 41 26 12 8 9 27 31 36 35 33 30 27 28 28 29 32 32 38 34
35 32 36 37 33 33 32 28 32 39 42 40 50 60 63 63 57 71 74 79 74 71 69 64 64 63 56 50 50 43 33 14 16 24 21 28 30 33 34 39 39 36 34 33 31 25 30 33 36
36 35 39 41 39 37 45 30 29 34 48 47 42 53 53 46 52 63 66 83 81 72 67 64 60 63 56 62 45 42 37 29 31 24 25 29 25 26 34 37 45 47 45 40 38 36 35 35 39
34 35 38 29 28 29 41 38 32 30 33 32 43 59 57 52 54 53 64 69 85 80 73 70 65 61 57 58 54 46 37 34 33 29 30 28 14 25 24 29 40 51 51 45 43 42 42 40 37
42 24 18 23 26 26 39 39 32 31 25 11 30 53 62 58 55 55 65 73 81 87 79 73 67 62 59 57 58 56 48 41 40 36 33 25 30 28 31 39 46 51 48 47 45 46 45 43 40
30 29 23 27 25 34 41 41 36 42 51 12 13 24 26 22 24 21 26 31 48 84 81 72 70 64 60 61 59 54 52 47 43 37 34 35 36 41 42 45 50 52 52 50 49 48 47 42 42
47 31 41 38 40 30 32 40 47 19 18 15 22 21 21 10 9 14 24 30 40 58 81 75 67 67 60 53 52 51 48 47 40 34 42 44 45 45 45 49 53 53 51 50 50 51 52 52 48
39 32 29 23 35 39 37 37 16 29 27 26 22 26 19 18 9 13 20 24 29 36 74 74 65 64 54 44 46 53 53 49 46 45 47 47 48 49 50 55 55 54 52 52 52 53 57 58 53
25 29 32 25 20 27 27 28 28 11 30 14 23 35 38 24 26 20 18 16 23 20 53 62 54 48 40 40 50 51 48 46 44 46 48 49 49 50 54 56 56 56 55 54 54 58 63 61 58
38 38 35 18 30 24 29 27 17 24 24 24 33 30 32 25 20 21 15 14 23 28 39 43 46 46 41 47 52 51 47 48 49 51 51 51 51 53 57 59 59 59 58 56 58 65 68 63 58
Wind_Direction_500mb
289 306 347 283 249 219 256 218 168 135 258 75 60 73 74 54 47 89 131 121 125 138 135 127 126 129 130 138 140 135 128 128 131 130 127 126 125 124 113 100 90 82 101 116 114 103 89 75 64
287 273 267 272 253 272 253 196 191 123 90 89 103 85 68 73 85 115 118 127 132 133 131 128 128 133 134 137 140 140 138 137 137 136 135 136 138 146 149 133 110 107 117 133 130 122 86 56 48
279 285 275 229 248 254 275 348 100 107 114 109 80 83 69 93 81 108 120 119 117 129 137 133 127 130 134 136 138 143 146 147 148 148 149 153 161 175 189 189 183 179 189 190 201 219 307 354 13
285 242 254 255 266 258 261 54 90 113 124 122 98 90 93 94 110 123 129 128 130 132 135 132 126 123 124 129 137 145 154 162 171 177 179 187 203 214 218 222 226 237 235 233 237 249 275 306 330
241 266 249 256 251 269 277 109 122 141 143 136 115 101 104 112 122 128 132 137 131 133 136 135 133 131 129 128 132 140 152 167 181 193 204 215 221 228 234 235 239 249 255 254 260 265 271 280 295
231 242 251 252 248 254 270 144 141 162 164 123 104 117 113 129 129 135 136 139 133 134 143 141 137 135 134 134 134 134 135 141 154 177 200 220 233 239 241 244 246 249 257 263 267 273 279 284 289
247 254 254 262 271 265 242 151 176 193 152 134 132 118 135 144 139 139 139 129 131 150 159 146 144 145 146 146 146 147 148 149 147 148 160 197 237 256 262 262 262 264 266 271 276 279 282 287 292
239 256 268 268 267 275 266 167 185 196 167 145 130 132 156 146 146 145 148 147 151 153 123 109 133 130 160 156 152 153 154 151 153 157 164 118 348 341 320 291 274 273 276 276 277 280 285 288 290
239 252 256 256 264 273 259 175 178 199 126 131 93 146 145 151 153 157 153 156 157 157 163 153 139 107 106 153 145 149 147 146 136 206 191 128 127 3 334 304 312 315 301 289 288 290 294 295 292
231 243 246 256 269 270 268 187 184 123 133 135 114 127 144 156 162 167 148 166 156 164 151 149 138 106 142 134 23 96 80 92 90 62 47 30 357 80 284 311 304 311 322 309 303 312 316 315 318
232 239 251 259 255 316 278 193 193 164 168 153 154 149 157 164 171 175 163 160 155 140 149 146 137 112 161 119 90 80 61 40 33 165 152 239 171 282 263 316 320 306 302 310 303 308 307 308 319
242 241 241 259 275 307 294 286 233 176 196 177 177 165 169 174 173 174 183 165 170 160 135 145 150 156 164 160 158 159 165 162 164 261 195 215 135 227 230 223 229 305 309 330 286 275 272 273 267
243 246 247 254 269 268 289 279 256 181 219 186 167 167 178 179 179 180 179 159 149 151 151 153 167 179 182 156 173 176 160 160 215 239 345 264 227 264 266 258 254 259 263 279 297 312 298 278 266
250 248 249 253 264 230 260 264 250 192 194 153 154 169 182 188 181 174 160 156 160 171 164 181 198 175 170 182 202 192 181 193 163 204 22 69 285 338 305 302 278 269 272 260 253 251 260 264 271
255 269 261 243 254 245 248 251 248 209 173 175 163 176 188 194 186 173 172 169 167 163 168 182 193 172 192 188 161 163 124 162 158 227 144 16 345 341 339 322 327 313 275 284 295 296 297 288 289
262 255 258 239 252 237 242 241 249 177 176 190 174 184 197 194 193 175 177 175 175 168 182 187 174 189 179 177 168 164 154 159 175 172 339 352 357 339 345 330 316 290 301 304 305 297 293 283 275
234 243 240 248 242 219 224 230 255 197 182 200 194 194 203 200 196 179 180 178 179 178 193 184 185 196 180 178 166 175 168 160 188 162 239 337 325 326 338 328 317 317 317 315 313 301 278 277 275
227 226 241 252 235 230 218 217 254 223 191 196 205 200 207 203 194 184 183 183 185 188 200 173 190 194 189 175 176 172 172 177 184 197 273 321 326 331 336 327 322 323 323 316 291 280 282 287 297
248 254 242 210 250 237 209 208 209 255 240 186 196 203 203 204 198 191 187 186 185 193 199 183 190 197 194 186 177 185 184 177 199 250 275 321 330 339 333 327 324 319 315 304 301 299 299 300 303
241 256 263 265 228 243 204 215 232 221 249 204 193 203 211 203 201 190 186 187 190 194 205 191 194 200 198 192 164 199 176 205 189 243 291 309 318 335 336 331 322 317 319 314 311 310 308 304 310
238 235 249 261 271 266 260 227 223 246 233 245 216 213 218 217 199 195 188 187 191 197 209 202 198 205 199 193 189 194 197 215 234 237 332 305 322 323 330 333 329 323 323 324 310 301 294 292 292
247 247 262 267 252 256 222 244 237 240 252 234 242 202 211 214 212 195 191 189 191 200 209 212 206 211 200 187 213 209 212 192 190 197 247 271 300 321 325 330 331 327 324 319 316 309 288 288 289
252 244 243 233 249 260 253 237 237 227 225 231 222 224 222 225 218 200 192 192 195 196 203 210 212 215 209 196 206 213 201 201 227 237 255 286 311 319 328 316 316 320 320 317 308 301 295 289 280
257 246 251 271 232 241 248 250 238 242 252 240 213 203 212 212 221 210 199 196 196 196 197 207 209 214 216 211 201 216 217 202 216 238 263 288 290 275 305 296 290 306 309 308 307 303 299 297 288
231 233 241 230 238 234 235 242 246 260 249 247 221 198 202 204 210 206 204 205 198 192 192 201 205 210 216 215 218 216 217 231 239 252 268 273 280 289 288 288 299 303 303 300 297 298 301 302 295
201 222 232 232 233 238 231 243 241 239 259 187 58 161 156 166 193 218 231 226 211 192 187 194 202 206 214 214 227 224 227 236 249 257 267 270 276 292 296 304 307 307 305 302 298 295 297 291 282
244 214 231 253 263 263 263 244 219 182 116 139 144 136 124 146 222 252 244 230 229 200 188 189 198 199 206 213 226 226 234 240 246 249 259 273 283 291 297 301 301 298 295 294 294 294 295 291 282
218 250 243 223 241 256 259 264 276 176 194 173 173 160 183 143 157 229 249 244 235 215 193 187 195 194 201 216 229 227 236 245 253 257 264 271 280 286 294 305 307 303 299 297 295 293 294 292 285
211 216 245 275 231 264 248 254 283 295 191 206 189 183 161 160 204 182 222 208 212 204 167 173 178 192 202 223 224 231 237 246 256 264 272 277 284 292 298 303 303 300 295 292 287 286 289 288 281
260 237 224 236 254 246 247 242 268 45 101 219 184 172 143 161 175 158 164 179 185 164 162 176 187 194 214 216 222 232 239 242 250 261 270 278 284 291 297 299 298 294 291 287 281 281 281 281 274
Wind_Speed_850mb
18 16 18 19 12 13 32 32 42 53 66 58 60 53 50 47 32 20 41 30 32 33 31 25 26 28 28 28 25 22 20 20 20 19 18 16 15 13 11 10 10 9 9 11 11 10 11 13 16
17 12 22 22 18 25 30 15 19 32 45 42 35 52 52 43 48 44 36 38 25 33 30 27 28 29 28 26 23 21 19 19 19 18 15 13 11 9 7 5 5 5 4 5 6 5 4 6 10
12 5 21 11 25 30 28 22 37 36 46 37 49 46 22 25 24 36 42 36 39 31 34 29 27 27 25 23 21 20 18 17 17 15 13 11 9 8 7 5 2 1 3 4 3 2 1 3 6
7 13 21 18 35 42 42 20 34 28 40 32 42 29 24 23 30 37 39 36 40 28 36 30 27 25 24 22 19 17 16 15 14 12 11 10 9 9 9 9 6 4 5 6 7 6 6 6 7
17 22 23 30 37 46 37 25 22 24 22 33 41 30 28 34 41 39 38 39 40 25 32 30 27 25 24 22 20 17 15 14 13 12 12 13 14 14 13 12 11 9 8 9 11 11 11 11 11
23 23 25 30 40 43 40 21 19 22 25 39 53 44 27 37 38 37 36 42 39 26 29 27 25 21 20 19 17 15 14 12 10 9 9 10 11 13 15 16 16 15 14 13 14 16 18 18 18
32 24 34 38 42 42 34 20 21 24 26 27 50 33 34 40 38 40 39 39 38 10 23 28 24 21 19 17 15 12 11 10 9 8 5 4 6 8 11 15 17 19 19 20 20 21 22 24 25
39 22 43 39 36 44 30 30 36 31 25 33 46 29 43 48 45 43 39 35 30 32 17 15 18 15 14 16 14 11 8 7 5 4 3 1 2 5 10 12 15 18 23 26 28 29 30 30 30
42 28 32 41 42 41 28 22 32 27 40 28 9 49 54 48 45 41 42 37 40 43 30 32 32 16 10 13 11 10 9 7 3 1 0 4 3 8 11 15 16 24 29 29 30 33 34 37 40
42 30 44 43 41 36 34 24 30 31 35 33 29 57 52 48 42 45 34 40 35 37 56 38 34 22 18 14 8 17 20 14 11 8 10 4 6 2 5 19 26 24 22 24 29 28 33 30 33
50 41 42 48 55 45 26 30 34 36 28 38 40 44 48 46 43 39 29 44 36 35 35 36 29 23 20 15 13 11 12 9 3 8 11 6 3 11 6 13 22 19 24 23 20 25 30 33 34
46 61 54 59 64 29 35 34 34 33 28 44 43 45 46 46 42 38 34 35 35 40 51 39 36 42 29 18 17 22 10 11 8 12 7 5 11 12 14 15 8 15 21 25 25 28 30 34 30
49 45 54 59 53 22 39 45 32 40 42 54 58 50 46 43 41 37 33 29 44 38 31 29 29 41 40 31 26 24 10 15 16 9 3 5 7 13 15 20 22 23 18 19 23 24 30 33 45
50 48 49 50 56 22 38 41 43 31 30 36 55 49 45 41 40 32 29 34 34 40 32 26 32 32 34 27 19 13 25 18 10 7 2 5 3 9 11 12 11 20 20 24 33 36 33 32 35
49 42 37 37 57 32 42 42 47 38 42 38 45 44 42 39 38 37 31 29 42 43 42 40 31 29 24 17 19 19 22 13 13 7 3 1 6 14 15 15 14 14 25 30 28 20 25 27 32
32 33 37 33 41 30 42 37 42 42 41 39 48 46 43 41 41 40 38 39 42 46 48 42 27 26 21 25 26 22 29 16 10 4 6 8 14 19 20 20 17 25 29 29 22 22 26 28 31
31 31 42 40 36 37 39 29 40 50 38 34 41 46 46 43 40 44 42 45 48 52 54 41 36 27 33 31 34 27 25 16 13 7 8 9 15 19 21 21 24 30 30 26 21 24 30 34 34
33 40 38 36 38 41 42 37 33 41 56 53 50 52 50 51 51 47 45 47 51 52 51 48 46 35 36 38 32 20 20 19 7 5 10 13 17 20 24 22 23 28 29 26 25 34 39 42 40
35 44 41 33 49 37 44 36 37 47 44 59 53 51 56 54 52 54 51 54 57 56 55 57 51 47 45 43 33 23 12 17 13 14 14 16 17 24 26 24 24 25 26 30 35 39 38 37 29
43 46 46 42 36 42 39 40 37 33 43 44 55 56 49 59 57 61 61 63 63 62 60 62 58 52 49 44 28 25 24 19 20 20 18 24 18 30 28 28 25 25 28 31 30 32 36 35 26
45 43 42 46 35 37 34 31 23 29 49 55 53 49 53 56 63 62 70 70 67 69 68 65 64 58 52 47 46 45 41 26 12 8 9 27 31 36 35 33 30 27 28 28 29 32 32 38 34
35 32 36 37 33 33 32 28 32 39 42 40 50 60 63 63 57 71 74 79 74 71 69 64 64 63 56 50 50 43 33 14 16 24 21 28 30 33 34 39 39 36 34 33 31 25 30 33 36
36 35 39 41 39 37 45 30 29 34 48 47 42 53 53 46 52 63 66 83 81 72 67 64 60 63 56 62 45 42 37 29 31 24 25 29 25 26 34 37 45 47 45 40 38 36 35 35 39
34 35 38 29 28 29 41 38 32 30 33 32 43 59 57 52 54 53 64 69 85 80 73 70 65 61 57 58 54 46 37 34 33 29 30 28 14 25 24 29 40 51 51 45 43 42 42 40 37
42 24 18 23 26 26 39 39 32 31 25 11 30 53 62 58 55 55 65 73 81 87 79 73 67 62 59 57 58 56 48 41 40 36 33 25 30 28 31 39 46 51 48 47 45 46 45 43 40
30 29 23 27 25 34 41 41 36 42 51 12 13 24 26 22 24 21 26 31 48 84 81 72 70 64 60 61 59 54 52 47 43 37 34 35 36 41 42 45 50 52 52 50 49 48 47 42 42
47 31 41 38 40 30 32 40 47 19 18 15 22 21 21 10 9 14 24 30 40 58 81 75 67 67 60 53 52 51 48 47 40 34 42 44 45 45 45 49 53 53 51 50 50 51 52 52 48
39 32 29 23 35 39 37 37 16 29 27 26 22 26 19 18 9 13 20 24 29 36 74 74 65 64 54 44 46 53 53 49 46 45 47 47 48 49 50 55 55 54 52 52 52 53 57 58 53
25 29 32 25 20 27 27 28 28 11 30 14 23 35 38 24 26 20 18 16 23 20 53 62 54 48 40 40 50 51 48 46 44 46 48 49 49 50 54 56 56 56 55 54 54 58 63 61 58
38 38 35 18 30 24 29 27 17 24 24 24 33 30 32 25 20 21 15 14 23 28 39 43 46 46 41 47 52 51 47 48 49 51 51 51 51 53 57 59 59 59 58 56 58 65 68 63 58
Wind_Direction_850mb
289 306 347 283 249 219 256 218 168 135 258 75 60 73 74 54 47 89 131 121 125 138 135 127 126 129 130 138 140 135 128 128 131 130 127 126 125 124 113 100 90 82 101 116 114 103 89 75 64
287 273 267 272 253 272 253 196 191 123 90 89 103 85 68 73 85 115 118 127 132 133 131 128 128 133 134 137 140 140 138 137 137 136 135 136 138 146 149 133 110 107 117 133 130 122 86 56 48
279 285 275 229 248 254 275 348 100 107 114 109 80 83 69 93 81 108 120 119 117 129 137 133 127 130 134 136 138 143 146 147 148 148 149 153 161 175 189 189 183 179 189 190 201 219 307 354 13
285 242 254 255 266 258 261 54 90 113 124 122 98 90 93 94 110 123 129 128 130 132 135 132 126 123 124 129 137 145 154 162 171 177 179 187 203 214 218 222 226 237 235 233 237 249 275 306 330
241 266 249 256 251 269 277 109 122 141 143 136 115 101 104 112 122 128 132 137 131 133 136 135 133 131 129 128 132 140 152 167 181 193 204 215 221 228 234 235 239 249 255 254 260 265 271 280 295
231 242 251 252 248 254 270 144 141 162 164 123 104 117 113 129 129 135 136 139 133 134 143 141 137 135 134 134 134 134 135 141 154 177 200 220 233 239 241 244 246 249 257 263 267 273 279 284 289
247 254 254 262 271 265 242 151 176 193 152 134 132 118 135 144 139 139 139 129 131 150 159 146 144 145 146 146 146 147 148 149 147 148 160 197 237 256 262 262 262 264 266 271 276 279 282 287 292
239 256 268 268 267 275 266 167 185 196 167 145 130 132 156 146 146 145 148 147 151 153 123 109 133 130 160 156 152 153 154 151 153 157 164 118 348 341 320 291 274 273 276 276 277 280 285 288 290
239 252 256 256 264 273 259 175 178 199 126 131 93 146 145 151 153 157 153 156 157 157 163 153 139 107 106 153 145 149 147 146 136 206 191 128 127 3 334 304 312 315 301 289 288 290 294 295 292
231 243 246 256 269 270 268 187 184 123 133 135 114 127 144 156 162 167 148 166 156 164 151 149 138 106 142 134 23 96 80 92 90 62 47 30 357 80 284 311 304 311 322 309 303 312 316 315 318
232 239 251 259 255 316 278 193 193 164 168 153 154 149 157 164 171 175 163 160 155 140 149 146 137 112 161 119 90 80 61 40 33 165 152 239 171 282 263 316 320 306 302 310 303 308 307 308 319
242 241 241 259 275 307 294 286 233 176 196 177 177 165 169 174 173 174 183 165 170 160 135 145 150 156 164 160 158 159 165 162 164 261 195 215 135 227 230 223 229 305 309 330 286 275 272 273 267
243 246 247 254 269 268 289 279 256 181 219 186 167 167 178 179 179 180 179 159 149 151 151 153 167 179 182 156 173 176 160 160 215 239 345 264 227 264 266 258 254 259 263 279 297 312 298 278 266
250 248 249 253 264 230 260 264 250 192 194 153 154 169 182 188 181 174 160 156 160 171 164 181 198 175 170 182 202 192 181 193 163 204 22 69 285 338 305 302 278 269 272 260 253 251 260 264 271
255 269 261 243 254 245 248 251 248 209 173 175 163 176 188 194 186 173 172 169 167 163 168 182 193 172 192 188 161 163 124 162 158 227 144 16 345 341 339 322 327 313 275 284 295 296 297 288 289
262 255 258 239 252 237 242 241 249 177 176 190 174 184 197 194 193 175 177 175 175 168 182 187 174 189 179 177 168 164 154 159 175 172 339 352 357 339 345 330 316 290 301 304 305 297 293 283 275
234 243 240 248 242 219 224 230 255 197 182 200 194 194 203 200 196 179 180 178 179 178 193 184 185 196 180 178 166 175 168 160 188 162 239 337 325 326 338 328 317 317 317 315 313 301 278 277 275
227 226 241 252 235 230 218 217 254 223 191 196 205 200 207 203 194 184 183 183 185 188 200 173 190 194 189 175 176 172 172 177 184 197 273 321 326 331 336 327 322 323 323 316 291 280 282 287 297
248 254 242 210 250 237 209 208 209 255 240 186 196 203 203 204 198 191 187 186 185 193 199 183 190 197 194 186 177 185 184 177 199 250 275 321 330 339 333 327 324 319 315 304 301 299 299 300 303
241 256 263 265 228 243 204 215 232 221 249 204 193 203 211 203 201 190 186 187 190 194 205 191 194 200 198 192 164 199 176 205 189 243 291 309 318 335 336 331 322 317 319 314 311 310 308 304 310
238 235 249 261 271 266 260 227 223 246 233 245 216 213 218 217 199 195 188 187 191 197 209 202 198 205 199 193 189 194 197 215 234 237 332 305 322 323 330 333 329 323 323 324 310 301 294 292 292
247 247 262 267 252 256 222 244 237 240 252 234 242 202 211 214 212 195 191 189 191 200 209 212 206 211 200 187 213 209 212 192 190 197 247 271 300 321 325 330 331 327 324 319 316 309 288 288 289
252 244 243 233 249 260 253 237 237 227 225 231 222 224 222 225 218 200 192 192 195 196 203 210 212 215 209 196 206 213 201 201 227 237 255 286 311 319 328 316 316 320 320 317 308 301 295 289 280
257 246 251 271 232 241 248 250 238 242 252 240 213 203 212 212 221 210 199 196 196 196 197 207 209 214 216 211 201 216 217 202 216 238 263 288 290 275 305 296 290 306 309 308 307 303 299 297 288
231 233 241 230 238 234 235 242 246 260 249 247 221 198 202 204 210 206 204 205 198 192 192 201 205 210 216 215 218 216 217 231 239 252 268 273 280 289 288 288 299 303 303 300 297 298 301 302 295
201 222 232 232 233 238 231 243 241 239 259 187 58 161 156 166 193 218 231 226 211 192 187 194 202 206 214 214 227 224 227 236 249 257 267 270 276 292 296 304 307 307 305 302 298 295 297 291 282
244 214 231 253 263 263 263 244 219 182 116 139 144 136 124 146 222 252 244 230 229 200 188 189 198 199 206 213 226 226 234 240 246 249 259 273 283 291 297 301 301 298 295 294 294 294 295 291 282
218 250 243 223 241 256 259 264 276 176 194 173 173 160 183 143 157 229 249 244 235 215 193 187 195 194 201 216 229 227 236 245 253 257 264 271 280 286 294 305 307 303 299 297 295 293 294 292 285
211 216 245 275 231 264 248 254 283 295 191 206 189 183 161 160 204 182 222 208 212 204 167 173 178 192 202 223 224 231 237 246 256 264 272 277 284 292 298 303 303 300 295 292 287 286 289 288 281
260 237 224 236 254 246 247 242 268 45 101 219 184 172 143 161 175 158 164 179 185 164 162 176 187 194 214 216 222 232 239 242 250 261 270 278 284 291 297 299 298 294 291 287 281 281 281 281 274